Time,TemperatureF,DewpointF,PressureIn,WindDirection,WindDirectionDegrees,WindSpeedMPH,WindSpeedGustMPH,Humidity,HourlyPrecipIn,Conditions,Clouds,dailyrainin,SoftwareType,DateUTC
2013-02-07 00:01:00,34.2,29.0,29.94,East,90,9.9,-999.0,81,-99.99,,,0.00,Acu-Link.com,2013-02-07 05:01:00,
2013-02-07 00:17:00,34.2,29.0,29.94,East,90,6.3,-999.0,81,-99.99,,,0.00,Acu-Link.com,2013-02-07 05:17:00,
2013-02-07 00:32:00,33.8,28.6,29.94,ENE,67,7.3,-999.0,81,-99.99,,,0.00,Acu-Link.com,2013-02-07 05:32:00,
2013-02-07 00:47:00,34.0,28.8,29.94,East,90,7.8,-999.0,81,-99.99,,,0.00,Acu-Link.com,2013-02-07 05:47:00,
2013-02-07 01:02:00,34.0,28.8,29.94,East,90,6.8,-999.0,81,-99.99,,,0.00,Acu-Link.com,2013-02-07 06:02:00,
2013-02-07 01:17:00,34.0,28.8,29.93,ENE,67,5.8,-999.0,81,-99.99,,,0.00,Acu-Link.com,2013-02-07 06:17:00,
2013-02-07 01:32:00,33.8,28.6,29.91,ENE,67,7.3,-999.0,81,-99.99,,,0.00,Acu-Link.com,2013-02-07 06:32:00,
2013-02-07 01:47:00,34.0,29.1,29.91,East,90,6.3,-999.0,82,-99.99,,,0.00,Acu-Link.com,2013-02-07 06:47:00,
2013-02-07 02:02:00,34.0,29.1,29.91,East,90,4.7,-999.0,82,-99.99,,,0.00,Acu-Link.com,2013-02-07 07:02:00,
2013-02-07 02:18:00,34.0,29.1,29.91,NE,45,2.2,-999.0,82,-99.99,,,0.00,Acu-Link.com,2013-02-07 07:18:00,
2013-02-07 02:33:00,34.0,29.1,29.91,NE,45,5.3,-999.0,82,-99.99,,,0.00,Acu-Link.com,2013-02-07 07:33:00,
2013-02-07 02:48:00,33.8,28.9,29.91,South,180,0.0,-999.0,82,-99.99,,,0.00,Acu-Link.com,2013-02-07 07:48:00,
2013-02-07 03:03:00,34.0,29.1,29.89,ESE,112,5.8,-999.0,82,-99.99,,,0.00,Acu-Link.com,2013-02-07 08:03:00,
2013-02-07 03:18:00,33.8,28.9,29.89,East,90,5.3,-999.0,82,-99.99,,,0.00,Acu-Link.com,2013-02-07 08:18:00,
2013-02-07 03:33:00,33.8,29.2,29.89,East,90,5.3,-999.0,83,-99.99,,,0.00,Acu-Link.com,2013-02-07 08:33:00,
2013-02-07 03:48:00,33.6,29.0,29.89,ESE,112,1.7,-999.0,83,-99.99,,,0.00,Acu-Link.com,2013-02-07 08:48:00,
2013-02-07 04:03:00,33.6,29.0,29.90,ENE,67,3.2,-999.0,83,-99.99,,,0.00,Acu-Link.com,2013-02-07 09:03:00,
2013-02-07 04:18:00,33.8,29.2,29.90,NE,45,3.7,-999.0,83,-99.99,,,0.00,Acu-Link.com,2013-02-07 09:18:00,
2013-02-07 04:34:00,33.8,29.2,29.89,NNE,22,4.2,-999.0,83,-99.99,,,0.00,Acu-Link.com,2013-02-07 09:34:00,
2013-02-07 04:49:00,33.8,29.2,29.90,NNE,22,3.7,-999.0,83,-99.99,,,0.00,Acu-Link.com,2013-02-07 09:49:00,
2013-02-07 05:04:00,34.0,29.4,29.89,NNE,22,3.2,-999.0,83,-99.99,,,0.00,Acu-Link.com,2013-02-07 10:04:00,
2013-02-07 05:19:00,34.0,29.4,29.89,NNE,22,4.2,-999.0,83,-99.99,,,0.00,Acu-Link.com,2013-02-07 10:19:00,
2013-02-07 05:34:00,34.0,29.4,29.88,ENE,67,3.2,-999.0,83,-99.99,,,0.00,Acu-Link.com,2013-02-07 10:34:00,
2013-02-07 05:49:00,33.8,29.2,29.88,ESE,112,0.0,-999.0,83,-99.99,,,0.00,Acu-Link.com,2013-02-07 10:49:00,
2013-02-07 06:04:00,33.8,29.5,29.87,NNW,337,1.7,-999.0,84,-99.99,,,0.00,Acu-Link.com,2013-02-07 11:04:00,
2013-02-07 06:19:00,34.3,29.7,29.87,ENE,67,2.2,-999.0,83,-99.99,,,0.00,Acu-Link.com,2013-02-07 11:19:00,
2013-02-07 06:34:00,34.2,29.9,29.86,East,90,4.7,-999.0,84,-99.99,,,0.00,Acu-Link.com,2013-02-07 11:34:00,
2013-02-07 06:50:00,34.9,30.3,29.85,ENE,67,4.2,-999.0,83,-99.99,,,0.00,Acu-Link.com,2013-02-07 11:50:00,
2013-02-07 07:05:00,34.9,30.3,29.85,East,90,3.2,-999.0,83,-99.99,,,0.00,Acu-Link.com,2013-02-07 12:05:00,
2013-02-07 07:20:00,34.7,30.1,29.85,NE,45,4.7,-999.0,83,-99.99,,,0.00,Acu-Link.com,2013-02-07 12:20:00,
2013-02-07 07:35:00,34.7,30.1,29.85,NE,45,3.7,-999.0,83,-99.99,,,0.00,Acu-Link.com,2013-02-07 12:35:00,
2013-02-07 07:50:00,34.7,30.1,29.85,East,90,3.2,-999.0,83,-99.99,,,0.00,Acu-Link.com,2013-02-07 12:50:00,
2013-02-07 08:05:00,34.9,30.6,29.84,ENE,67,4.2,-999.0,84,-99.99,,,0.00,Acu-Link.com,2013-02-07 13:05:00,
2013-02-07 08:20:00,35.6,31.0,29.86,East,90,6.3,-999.0,83,-99.99,,,0.00,Acu-Link.com,2013-02-07 13:20:00,
2013-02-07 08:35:00,36.0,31.0,29.87,ENE,67,3.7,-999.0,82,-99.99,,,0.00,Acu-Link.com,2013-02-07 13:35:00,
2013-02-07 08:50:00,36.9,31.6,29.87,East,90,4.7,-999.0,81,-99.99,,,0.00,Acu-Link.com,2013-02-07 13:50:00,
2013-02-07 09:06:00,37.2,31.9,29.86,East,90,4.7,-999.0,81,-99.99,,,0.00,Acu-Link.com,2013-02-07 14:06:00,
2013-02-07 09:21:00,39.0,33.1,29.86,East,90,7.3,-999.0,79,-99.99,,,0.00,Acu-Link.com,2013-02-07 14:21:00,
2013-02-07 09:36:00,40.6,34.0,29.84,East,90,6.8,-999.0,77,-99.99,,,0.00,Acu-Link.com,2013-02-07 14:36:00,
2013-02-07 09:51:00,43.7,35.3,29.83,East,90,5.8,-999.0,72,-99.99,,,0.00,Acu-Link.com,2013-02-07 14:51:00,
2013-02-07 10:06:00,43.9,35.1,29.84,East,90,4.2,-999.0,71,-99.99,,,0.00,Acu-Link.com,2013-02-07 15:06:00,
2013-02-07 10:21:00,43.7,34.6,29.84,ESE,112,3.7,-999.0,70,-99.99,,,0.00,Acu-Link.com,2013-02-07 15:21:00,
2013-02-07 10:36:00,44.1,35.3,29.83,ESE,112,4.2,-999.0,71,-99.99,,,0.00,Acu-Link.com,2013-02-07 15:36:00,
2013-02-07 10:51:00,47.1,37.5,29.82,NE,45,2.7,-999.0,69,-99.99,,,0.00,Acu-Link.com,2013-02-07 15:51:00,
2013-02-07 11:07:00,49.8,36.9,29.82,SSE,157,4.2,-999.0,61,-99.99,,,0.00,Acu-Link.com,2013-02-07 16:07:00,
2013-02-07 11:22:00,51.8,37.5,29.82,SE,135,4.7,-999.0,58,-99.99,,,0.00,Acu-Link.com,2013-02-07 16:22:00,
2013-02-07 11:37:00,52.7,37.4,29.81,ESE,112,5.3,-999.0,56,-99.99,,,0.00,Acu-Link.com,2013-02-07 16:37:00,
2013-02-07 11:52:00,55.2,37.9,29.81,SSE,157,3.7,-999.0,52,-99.99,,,0.00,Acu-Link.com,2013-02-07 16:52:00,
2013-02-07 12:07:00,57.4,37.9,29.80,South,180,3.2,-999.0,48,-99.99,,,0.00,Acu-Link.com,2013-02-07 17:07:00,
2013-02-07 12:22:00,58.5,38.3,29.79,South,180,5.8,-999.0,47,-99.99,,,0.00,Acu-Link.com,2013-02-07 17:22:00,
2013-02-07 12:37:00,59.9,37.9,29.77,WSW,247,2.7,-999.0,44,-99.99,,,0.00,Acu-Link.com,2013-02-07 17:37:00,
2013-02-07 12:52:00,61.2,38.5,29.76,WSW,247,1.7,-999.0,43,-99.99,,,0.00,Acu-Link.com,2013-02-07 17:52:00,
2013-02-07 13:07:00,61.2,37.9,29.74,West,270,7.8,-999.0,42,-99.99,,,0.00,Acu-Link.com,2013-02-07 18:07:00,
2013-02-07 13:22:00,61.7,37.1,29.74,SE,135,3.7,-999.0,40,-99.99,,,0.00,Acu-Link.com,2013-02-07 18:22:00,
2013-02-07 13:38:00,61.9,37.3,29.73,WSW,247,4.2,-999.0,40,-99.99,,,0.00,Acu-Link.com,2013-02-07 18:38:00,
2013-02-07 14:08:00,63.0,39.5,29.71,SW,225,5.3,-999.0,42,-99.99,,,0.00,Acu-Link.com,2013-02-07 19:08:00,
2013-02-07 14:23:00,63.3,39.2,29.70,WSW,247,5.3,-999.0,41,-99.99,,,0.00,Acu-Link.com,2013-02-07 19:23:00,
2013-02-07 14:38:00,63.0,40.2,29.70,SW,225,7.8,-999.0,43,-99.99,,,0.00,Acu-Link.com,2013-02-07 19:38:00,
2013-02-07 14:53:00,62.6,40.4,29.69,WSW,247,7.3,-999.0,44,-99.99,,,0.00,Acu-Link.com,2013-02-07 19:53:00,
2013-02-07 15:08:00,63.1,40.8,29.69,WSW,247,6.3,-999.0,44,-99.99,,,0.00,Acu-Link.com,2013-02-07 20:08:00,
2013-02-07 15:23:00,63.1,41.4,29.68,South,180,7.3,-999.0,45,-99.99,,,0.00,Acu-Link.com,2013-02-07 20:23:00,
2013-02-07 15:38:00,63.0,41.9,29.68,WSW,247,4.7,-999.0,46,-99.99,,,0.00,Acu-Link.com,2013-02-07 20:38:00,
2013-02-07 15:54:00,62.8,41.1,29.68,WSW,247,4.7,-999.0,45,-99.99,,,0.00,Acu-Link.com,2013-02-07 20:54:00,
2013-02-07 16:09:00,62.4,41.9,29.68,SW,225,6.3,-999.0,47,-99.99,,,0.00,Acu-Link.com,2013-02-07 21:09:00,
2013-02-07 16:24:00,62.2,41.2,29.67,SW,225,5.8,-999.0,46,-99.99,,,0.00,Acu-Link.com,2013-02-07 21:24:00,
2013-02-07 16:39:00,62.4,41.9,29.67,WSW,247,6.8,-999.0,47,-99.99,,,0.00,Acu-Link.com,2013-02-07 21:39:00,
2013-02-07 16:54:00,62.2,41.7,29.67,WSW,247,4.2,-999.0,47,-99.99,,,0.00,Acu-Link.com,2013-02-07 21:54:00,
2013-02-07 17:09:00,61.9,42.0,29.66,WSW,247,8.3,-999.0,48,-99.99,,,0.00,Acu-Link.com,2013-02-07 22:09:00,
2013-02-07 17:24:00,60.8,41.5,29.66,SW,225,3.7,-999.0,49,-99.99,,,0.00,Acu-Link.com,2013-02-07 22:24:00,
2013-02-07 17:39:00,60.8,41.5,29.66,WSW,247,4.2,-999.0,49,-99.99,,,0.00,Acu-Link.com,2013-02-07 22:39:00,
2013-02-07 17:55:00,59.5,40.8,29.66,WSW,247,2.2,-999.0,50,-99.99,,,0.00,Acu-Link.com,2013-02-07 22:55:00,
2013-02-07 18:10:00,57.7,39.7,29.65,WSW,247,3.7,-999.0,51,-99.99,,,0.00,Acu-Link.com,2013-02-07 23:10:00,
2013-02-07 18:25:00,55.0,39.6,29.66,ESE,112,0.0,-999.0,56,-99.99,,,0.00,Acu-Link.com,2013-02-07 23:25:00,
2013-02-07 18:40:00,52.0,38.6,29.66,SSE,157,0.0,-999.0,60,-99.99,,,0.00,Acu-Link.com,2013-02-07 23:40:00,
2013-02-07 18:55:00,51.3,39.1,29.66,WSW,247,0.0,-999.0,63,-99.99,,,0.00,Acu-Link.com,2013-02-07 23:55:00,
2013-02-07 19:10:00,50.2,38.5,29.66,West,270,0.0,-999.0,64,-99.99,,,0.00,Acu-Link.com,2013-02-08 00:10:00,
2013-02-07 19:25:00,50.0,38.7,29.65,ENE,67,0.0,-999.0,65,-99.99,,,0.00,Acu-Link.com,2013-02-08 00:25:00,
2013-02-07 19:40:00,49.6,38.7,29.65,West,270,0.0,-999.0,66,-99.99,,,0.00,Acu-Link.com,2013-02-08 00:40:00,
2013-02-07 19:55:00,49.6,38.7,29.64,WNW,292,0.0,-999.0,66,-99.99,,,0.00,Acu-Link.com,2013-02-08 00:55:00,
2013-02-07 20:10:00,49.1,38.6,29.64,West,270,0.0,-999.0,67,-99.99,,,0.00,Acu-Link.com,2013-02-08 01:10:00,
2013-02-07 20:26:00,48.9,39.2,29.62,West,270,0.0,-999.0,69,-99.99,,,0.00,Acu-Link.com,2013-02-08 01:26:00,
2013-02-07 20:41:00,48.0,38.7,29.64,WNW,292,0.0,-999.0,70,-99.99,,,0.00,Acu-Link.com,2013-02-08 01:41:00,
2013-02-07 20:56:00,46.8,38.3,29.64,West,270,0.0,-999.0,72,-99.99,,,0.00,Acu-Link.com,2013-02-08 01:56:00,
2013-02-07 21:11:00,45.5,37.7,29.64,West,270,0.0,-999.0,74,-99.99,,,0.00,Acu-Link.com,2013-02-08 02:11:00,
2013-02-07 21:26:00,44.4,37.3,29.64,West,270,0.0,-999.0,76,-99.99,,,0.00,Acu-Link.com,2013-02-08 02:26:00,
2013-02-07 21:41:00,43.9,36.8,29.64,West,270,0.0,-999.0,76,-99.99,,,0.00,Acu-Link.com,2013-02-08 02:41:00,
2013-02-07 21:56:00,43.5,36.8,29.64,WSW,247,0.0,-999.0,77,-99.99,,,0.00,Acu-Link.com,2013-02-08 02:56:00,
2013-02-07 22:11:00,44.1,36.0,29.63,West,270,0.0,-999.0,73,-99.99,,,0.00,Acu-Link.com,2013-02-08 03:11:00,
2013-02-07 22:26:00,44.6,36.5,29.62,West,270,2.7,-999.0,73,-99.99,,,0.00,Acu-Link.com,2013-02-08 03:26:00,
2013-02-07 22:42:00,45.7,36.8,29.63,WSW,247,3.7,-999.0,71,-99.99,,,0.00,Acu-Link.com,2013-02-08 03:42:00,
2013-02-07 22:57:00,44.6,36.8,29.63,WSW,247,3.2,-999.0,74,-99.99,,,0.00,Acu-Link.com,2013-02-08 03:57:00,
2013-02-07 23:12:00,44.6,37.2,29.62,South,180,3.2,-999.0,75,-99.99,,,0.00,Acu-Link.com,2013-02-08 04:12:00,
2013-02-07 23:27:00,46.0,37.5,29.62,West,270,2.2,-999.0,72,-99.99,,,0.00,Acu-Link.com,2013-02-08 04:27:00,
2013-02-07 23:42:00,46.2,38.0,29.61,WSW,247,1.7,-999.0,73,-99.99,,,0.00,Acu-Link.com,2013-02-08 04:42:00,
2013-02-07 23:57:00,46.2,38.0,29.61,WSW,247,3.2,-999.0,73,-99.99,,,0.00,Acu-Link.com,2013-02-08 04:57:00,